Location: El Mouella
(16.4949°N, 9.1594°W)
Time: 16:33:38
(UTC+00:00)

Cosmos 2278 Rocket - Pass Details

Date: 02 June 2020
Orbit: 840 x 847 km, 71.0° (Epoch: 05 July)

Event Time Altitude Azimuth Distance (km) Brightness Sun altitude
Rises 20:01:23 0° 211° (SSW) 3,384 5.4 -12.7°
Reaches altitude 10° 20:03:55 10° 217° (SW) 2,452 4.7 -13.2°
Maximum altitude 20:09:16 44° 288° (WNW) 1,150 3.5 -14.3°
Drops below altitude 10° 20:14:37 10° 360° (N) 2,460 5.0 -15.4°
Sets 20:17:11 0° 7° (N) 3,397 5.7 -16.0°
